DECAYED

STARLINK-34128, 63892 (Decayed)

Orbit data source: Space-Track

STARLINK-34128, 63892 was a payload satellite owned by SpaceX/Seattle (US) in LEO that was launched on Sat, 10 May 2025 UTC via an FALCON 9 launch vehicle from the Air Force Eastern Test Range (AFETR). Payload-class satellites include a variety of spacecraft equipped with specific instruments for various scientific and technological missions. These include communications satellites like Starlink; space stations such as the ISS; scientific satellites like the Hubble; Earth observation satellites from companies like Planet Labs, Umbra, and HawkEye 360; GPS; miniature CubeSats for education and research; and military/defense satellites.

Not visible in the next 10 days
Identifier
63892, 2025-095C
Orbit
Decayed
Country
Flag of USUS
Related business
Manufacturer
SpaceX/Seattle
Mission
Decayed Commercial Communications
Bus & Motor
STARLINK V2MO, Unknown motor
Mass
575 kg wet, ~530 kg dry
Launch date (UTC)
2025-05-10 (1 year ago)
Launch vehicle
FALCON 9
Launch site
Air Force Eastern Test Range (AFETR)
Object type
Payload
Rocket body
Debris
Shape & HBR
Box + 2 Pan, 17.7 m
Radar Cross Section
36.964 m², Large (>1 m²)

Expand to show TLE details & history
Last TLE update: 4 months ago

TLE from 4 months ago
0 STARLINK-34128
1 63892U 25095C   26059.83395119  .10864389  89706-5  46844-2 0  9992
2 63892  42.9923 220.0314 0005960 293.3629  66.6630 16.21663642 46504
Epoch: 2026-02-28T20:00Z
TLE epoch observation values (Epoch: 2026-02-28T20:00:53.382Z)
Latitude
-0.00003°
Longitude
121.15856°
Altitude
213.25 km
Speed
7.781 km/s
True Right ascension
14h 40m 07s
True Declination
0° 00' 00"
Sunlit
Object was in full shadow at epoch
Visualization orbit readout
Latitude
Unknown
Longitude
Unknown
Altitude
Unknown
Speed
Unknown
Apparent Right ascension
Unknown
Apparent Declination
Unknown
Sunlit
N/A
Visualization observer readout
Local Sidereal Time
07:17:55
Azimuth
Unknown
Elevation
Unknown
Doppler factor
Unknown
Orbital elements
Apogee altitude
220.995 km
Perigee altitude
213.133 km
Semi-major axis
6,595.201 km
Eccentricity
0.0006
Inclination
42.9923°
RAAN
220.0314°
Arg. of periapsis
293.3629°
True anomaly
66.72573°
Mean anomaly
66.663°
Eccentric anomaly
66.69436°
Mean motion
4.0523 °/min
Orbital period
88.84 mins
BSTAR
0.0046844
Loading maneuver chart data...
Computing Atmospheric mass density...
Loading historical data...
Loading historical data...
Loading historical data...
Loading historical data...
Loading historical data...
Loading historical data...
Loading historical data...

Documentation

Showing up to 5 results
|